Weather History for Chanute, KS

Change the Weather History Date:

Thursday, May 16, 2013

  Actual Average Record
Temperature  
Mean Temperature 67 °F 66 °F  
Max Temperature 74 °F 76 °F 94 °F (1931)
Min Temperature 59 °F 56 °F 35 °F (2014)
Degree Days  
Heating Degree Days 0 2  
Month to date heating degree days 128 55  
Since 1 July heating degree days 4309 4457  
Cooling Degree Days 2 3  
Month to date cooling degree days 23 35  
Year to date cooling degree days 38 66  
Growing Degree Days 18 (Base 50)    
Moisture  
Dew Point 62 °F    
Average Humidity 81    
Maximum Humidity 97    
Minimum Humidity 64    
Precipitation  
Precipitation 0.00 in 0.19 in 4.17 in (1957)
Month to date precipitation 1.64 2.70  
Year to date precipitation 12.82 13.30  
Sea Level Pressure  
Sea Level Pressure 29.85 in    
Wind  
Wind Speed 5 mph (SE)    
Max Wind Speed 13 mph    
Max Gust Speed 17 mph    
Visibility 9 miles    
Events      
T = Trace of Precipitation, MM = Missing Value Source: NWS Daily Summary

Daily Weather History Graph

Daily Weather History Graph

Search for Another Location

Airport:

Trip Planner

Search our weather history database for the weather conditions in past years. The results will help you decide how hot, cold, wet, or windy it might be!

Date:

Astronomy

May. 16, 2013 Rise Set
Actual Time 6:11 AM CDT 8:25 PM CDT
Civil Twilight 5:41 AM CDT 8:55 PM CDT
Nautical Twilight 5:05 AM CDT 9:31 PM CDT
Astronomical Twilight 4:26 AM CDT 10:11 PM CDT
Moon 11:43 AM CDT (5/16) 12:48 AM CDT (5/16)
Length of Visible Light 15h 13m
Length of Day
14h 14m
Waxing Crescent, 36% of the Moon is Illuminated
May 16
Waxing Crescent
May 17
First Quarter
May 24
Full
May 31
Last Quarter
Jun 8
New

Hourly Weather History & Observations

Time (CDT) Temp. Dew Point Humidity Pressure Visibility Wind Dir Wind Speed Gust Speed Precip Events Conditions
12:13 AM 64.4 °F 62.6 °F 94% 29.87 in 10.0 mi SSE 5.8 mph - N/A   Scattered Clouds
12:52 AM 64.0 °F 62.1 °F 93% 29.85 in 10.0 mi South 5.8 mph - N/A   Partly Cloudy
1:52 AM 64.0 °F 62.1 °F 93% 29.83 in 10.0 mi East 3.5 mph - N/A   Clear
2:21 AM 64.4 °F 62.6 °F 94% 29.85 in 10.0 mi ESE 5.8 mph - N/A   Mostly Cloudy
2:52 AM 64.0 °F 62.1 °F 93% 29.83 in 10.0 mi SE 3.5 mph - N/A   Overcast
3:33 AM 62.6 °F 60.8 °F 94% 29.86 in 10.0 mi SSE 6.9 mph - N/A   Mostly Cloudy
3:52 AM 63.0 °F 61.0 °F 93% 29.83 in 10.0 mi SSE 5.8 mph - N/A   Overcast
4:52 AM 62.1 °F 60.1 °F 93% 29.84 in 8.0 mi East 4.6 mph - N/A   Clear
5:52 AM 62.1 °F 61.0 °F 96% 29.84 in 6.0 mi ENE 4.6 mph - N/A   Clear
6:52 AM 62.1 °F 61.0 °F 96% 29.85 in 5.0 mi East 6.9 mph - N/A   Clear
7:08 AM 62.6 °F 60.8 °F 94% 29.88 in 5.0 mi East 6.9 mph - N/A   Scattered Clouds
7:17 AM 62.6 °F 60.8 °F 94% 29.88 in 5.0 mi East 6.9 mph - N/A   Mostly Cloudy
7:52 AM 64.0 °F 62.1 °F 93% 29.87 in 5.0 mi ESE 8.1 mph - N/A   Overcast
8:04 AM 64.4 °F 62.6 °F 94% 29.89 in 5.0 mi ESE 5.8 mph - N/A   Overcast
8:52 AM 66.9 °F 63.0 °F 87% 29.87 in 8.0 mi SE 10.4 mph - N/A   Mostly Cloudy
8:55 AM 66.2 °F 62.6 °F 88% 29.89 in 9.0 mi SE 9.2 mph - N/A   Scattered Clouds
9:33 AM 68.0 °F 62.6 °F 83% 29.89 in 10.0 mi SSE 9.2 mph - N/A   Mostly Cloudy
9:41 AM 68.0 °F 62.6 °F 83% 29.89 in 10.0 mi SSE 9.2 mph 17.3 mph N/A   Scattered Clouds
9:52 AM 68.0 °F 62.1 °F 81% 29.87 in 10.0 mi SE 8.1 mph - N/A   Mostly Cloudy
10:45 AM 69.8 °F 62.6 °F 78% 29.88 in 10.0 mi Variable 4.6 mph - N/A   Overcast
10:52 AM 69.1 °F 62.1 °F 78% 29.86 in 10.0 mi Calm Calm - N/A   Overcast
11:49 AM 69.8 °F 62.6 °F 78% 29.87 in 10.0 mi SSE 6.9 mph - N/A   Overcast
11:52 AM 69.1 °F 62.1 °F 78% 29.85 in 10.0 mi SE 6.9 mph - N/A   Overcast
12:52 PM 71.1 °F 61.0 °F 70% 29.85 in 10.0 mi SE 8.1 mph - N/A   Overcast
1:52 PM 69.1 °F 61.0 °F 75% 29.85 in 10.0 mi SSE 5.8 mph - N/A   Overcast
2:18 PM 71.6 °F 62.6 °F 73% 29.87 in 10.0 mi SSE 6.9 mph - N/A   Overcast
2:52 PM 72.0 °F 62.1 °F 71% 29.84 in 10.0 mi South 3.5 mph - N/A   Overcast
3:52 PM 71.1 °F 61.0 °F 70% 29.83 in 10.0 mi SSE 8.1 mph - N/A   Overcast
4:52 PM 72.0 °F 62.1 °F 71% 29.81 in 10.0 mi SE 4.6 mph - N/A   Overcast
5:52 PM 73.0 °F 61.0 °F 66% 29.81 in 10.0 mi ESE 3.5 mph - N/A   Mostly Cloudy
6:52 PM 73.0 °F 60.1 °F 64% 29.80 in 10.0 mi ESE 5.8 mph - N/A   Clear
7:52 PM 70.0 °F 61.0 °F 73% 29.80 in 10.0 mi ESE 8.1 mph - N/A   Clear
8:52 PM 66.0 °F 60.1 °F 81% 29.82 in 10.0 mi ESE 4.6 mph - N/A   Clear
9:52 PM 64.0 °F 61.0 °F 90% 29.84 in 10.0 mi SE 3.5 mph - N/A   Clear
10:52 PM 63.0 °F 60.1 °F 90% 29.86 in 10.0 mi SE 4.6 mph - N/A   Scattered Clouds
11:04 PM 62.6 °F 60.8 °F 94% 29.88 in 10.0 mi SE 5.8 mph - N/A   Mostly Cloudy
11:14 PM 62.6 °F 60.8 °F 94% 29.88 in 10.0 mi SE 4.6 mph - N/A   Scattered Clouds
11:52 PM 61.0 °F 59.0 °F 93% 29.86 in 10.0 mi SE 4.6 mph - N/A   Clear